TimeEST,TemperatureF,Dew PointF,Humidity,Sea Level PressureIn,VisibilityMPH,Wind Direction,Wind SpeedMPH,Gust SpeedMPH,PrecipitationIn,Events,Conditions,WindDirDegrees,DateUTC
12:15 AM,46.4,37.4,71,30.36,10.0,North,8.1,-,N/A,,Overcast,360,2012-11-15 05:15:00
12:56 AM,46.9,39.0,74,30.34,10.0,North,10.4,-,N/A,,Overcast,10,2012-11-15 05:56:00
1:42 AM,46.4,39.2,76,30.32,10.0,North,12.7,-,N/A,,Overcast,10,2012-11-15 06:42:00
1:56 AM,46.9,39.0,74,30.33,10.0,North,10.4,-,N/A,,Mostly Cloudy,10,2012-11-15 06:56:00
2:56 AM,46.9,39.9,77,30.32,10.0,North,5.8,-,N/A,,Overcast,350,2012-11-15 07:56:00
3:56 AM,46.9,41.0,80,30.29,10.0,North,8.1,-,N/A,,Overcast,360,2012-11-15 08:56:00
4:56 AM,46.9,42.1,83,30.28,10.0,North,8.1,-,N/A,,Overcast,10,2012-11-15 09:56:00
5:56 AM,48.0,43.0,83,30.29,10.0,North,9.2,-,N/A,,Mostly Cloudy,10,2012-11-15 10:56:00
6:56 AM,48.9,44.1,83,30.29,10.0,North,8.1,-,N/A,,Mostly Cloudy,360,2012-11-15 11:56:00
7:56 AM,52.0,46.0,80,30.31,10.0,North,8.1,-,N/A,,Mostly Cloudy,10,2012-11-15 12:56:00
8:30 AM,53.6,46.4,77,30.30,10.0,NNE,10.4,-,N/A,,Mostly Cloudy,20,2012-11-15 13:30:00
8:56 AM,54.0,46.0,75,30.31,10.0,NE,13.8,19.6,N/A,,Overcast,50,2012-11-15 13:56:00
9:56 AM,55.0,46.0,72,30.31,10.0,ENE,16.1,21.9,N/A,,Overcast,60,2012-11-15 14:56:00
10:56 AM,55.9,46.0,69,30.31,10.0,ENE,15.0,-,N/A,,Mostly Cloudy,60,2012-11-15 15:56:00
11:56 AM,55.9,45.0,67,30.28,10.0,NE,12.7,-,N/A,,Overcast,50,2012-11-15 16:56:00
12:56 PM,55.0,45.0,69,30.26,10.0,NE,16.1,24.2,N/A,,Overcast,50,2012-11-15 17:56:00
1:56 PM,53.1,44.1,71,30.26,10.0,NE,13.8,25.3,N/A,,Mostly Cloudy,40,2012-11-15 18:56:00
2:56 PM,52.0,45.0,77,30.27,10.0,NNE,11.5,-,N/A,,Overcast,30,2012-11-15 19:56:00
3:56 PM,52.0,45.0,77,30.27,10.0,NE,12.7,19.6,N/A,,Overcast,40,2012-11-15 20:56:00
4:56 PM,51.1,44.1,77,30.26,10.0,NE,16.1,-,N/A,,Overcast,40,2012-11-15 21:56:00
5:56 PM,51.1,44.1,77,30.26,10.0,NNE,13.8,-,N/A,,Overcast,20,2012-11-15 22:56:00
6:56 PM,50.0,44.1,80,30.25,10.0,NNE,12.7,-,N/A,,Mostly Cloudy,30,2012-11-15 23:56:00
7:56 PM,50.0,44.1,80,30.25,10.0,NNE,11.5,-,N/A,,Overcast,20,2012-11-16 00:56:00
8:30 PM,50.0,44.6,82,30.25,10.0,NNE,13.8,19.6,0.00,Rain,Light Rain,20,2012-11-16 01:30:00
8:56 PM,50.0,45.0,83,30.27,10.0,North,10.4,-,0.02,Rain,Light Rain,360,2012-11-16 01:56:00
9:56 PM,48.0,45.0,89,30.27,10.0,North,10.4,-,0.03,Rain,Light Rain,10,2012-11-16 02:56:00
10:56 PM,46.9,44.1,90,30.26,8.0,NNE,8.1,-,0.06,Rain,Light Rain,20,2012-11-16 03:56:00
11:56 PM,46.9,45.0,93,30.25,10.0,North,9.2,-,0.03,Rain,Light Rain,10,2012-11-16 04:56:00